Location: Fort Lauderdale
(26.1220°N, 80.1440°W)
Time: 22:30:00
(UTC-04:00)

Hubble Space Telescope - Visible Passes

Search period start: 16 October 2019 00:00
Search period end: 26 October 2019 00:00
Orbit: 536 x 540 km, 28.5° (Epoch: 16 October)

Date Brightness Start Highest point End Pass type
(mag) Time Alt. Az. Time Alt. Az. Time Alt. Az.
16 Oct 3.8 19:31:50 10° SW 19:32:32 10° SSW 19:33:13 10° SSW visible
24 Oct 3.6 06:19:00 10° S 06:20:28 12° SSE 06:21:56 10° SE visible
25 Oct 3.4 06:07:20 10° S 06:09:49 16° SSE 06:12:18 10° ESE visible
